Location: Consuma
(43.7833°N, 11.5833°E)
Time: 07:22:12
(UTC+00:00)

STARLINK-1144 - Pass Details

Date: 17 February 2020
Orbit: 548 x 551 km, 53.0° (Epoch: 31 March)

Event Time Altitude Azimuth Distance (km) Brightness Sun altitude
Exits shadow 04:04:12 - 177° (S) 2,108 6.6 -23.4°
Reaches altitude 10° 04:05:10 10° 168° (SSE) 1,842 6.3 -23.3°
Drops below altitude 10° 04:10:34 10° 88° (E) 1,859 7.5 -22.3°
Enters shadow 05:10:12 -66° 234° (SW) 12,223 10.4 -11.5°
Maximum altitude 05:47:10 86° 325° (NW) 572 3.7 -4.9°
